[[{"header":{"parameterUnit":"m.s-1","parameterCategory":1,"la1":30.2991,"la2":30.254,"lo1":-89.0895,"lo2":-89.0444,"dy":0.0017,"dx":0.0017,"nx":28,"ny":28,"refTime":"2023-06-27T21:00:00:Z","depth":0,"parameterNumber":2,"parameterNumberName":"U-component_of_WINDS"},"data":[0,0,0,0,0,0,0,0,0,0,0,0,0,0,0,0,0,0,0,0,0,0,0,0,0,0,0,0,0,0,0,0,0,0,0,0,0,0,0,0,0,0,0,0,0,0,0,0,0,0,0,0,0,0,0,0,0,0,2.9281,2.9281,0,2.9282,2.9282,2.9282,2.919,2.9188,2.9185,2.9183,2.9189,2.9191,2.9193,0,0,0,0,0,0,0,0,0,0,0,0,0,2.9204,2.9206,2.9281,2.9281,2.9281,2.9282,2.9282,2.9283,2.9191,2.9188,2.9185,2.9182,2.9188,2.9191,2.9194,0,0,0,0,0,0,0,0,0,0,0,0,0,2.9225,2.9207,2.9281,2.9235,2.9231,2.9282,2.9282,2.9283,2.9191,2.9188,2.9184,2.918,2.9187,2.919,2.9194,2.929,0,0,2.9205,2.9207,0,0,0,0,0,0,0,0,2.9224,2.9228,2.9242,2.9239,2.9234,2.9232,2.9257,2.9285,2.9192,2.9207,2.9183,2.9179,2.9206,2.9208,2.9217,2.929,2.9291,2.9205,2.9208,2.9209,2.921,0,0,0,0,0,0,0,2.9223,2.9227,2.9282,2.9242,2.9238,2.9216,2.9215,2.9262,2.9227,2.9205,2.9198,2.92,2.9204,2.9213,2.9216,2.9291,2.9205,2.9209,2.9211,2.9212,2.9446,2.945,0,0,0,0,0,0,2.9227,2.9227,2.9282,2.9282,2.922,2.9221,2.922,2.9237,2.9226,2.9221,2.9203,2.9195,2.9209,2.9212,2.9216,2.933,2.9209,2.9213,2.9215,2.9442,2.9447,2.9451,0,0,0,0,0,0,2.9225,2.9232,2.9282,2.9252,2.9257,2.9226,2.9246,2.9239,2.9248,2.9225,2.9218,2.9219,2.9206,2.9211,2.9273,2.9329,2.9214,2.9218,2.9437,2.9444,2.9449,2.9558,0,0,0,0,0,0,2.9224,2.9232,2.9268,2.9254,2.9259,2.9337,2.9249,2.9241,2.9254,2.9245,2.9238,2.9234,2.9204,2.9268,2.9276,2.9332,2.922,2.9432,2.944,2.9447,2.9549,2.9567,2.9582,0,0,0,0,0,2.9221,2.9298,2.927,2.9277,2.9302,2.9341,2.9344,2.9306,2.9259,2.9295,2.928,2.9234,2.9321,2.9275,2.9284,2.9341,2.9429,2.9438,2.9447,2.9542,2.9563,2.9581,0,0,0,0,0,0,2.9321,2.9296,2.9264,2.9339,2.9342,2.9325,2.9369,2.933,2.9348,2.9339,2.9293,2.9292,2.9362,2.9357,2.9307,2.9435,2.9367,2.9378,2.9436,2.9456,2.9472,2.9473,2.9223,0,0,0,0,0,2.9351,2.9383,2.936,2.9429,2.9432,2.9401,2.9416,2.9387,2.939,2.9391,2.938,2.9386,2.9415,2.9435,2.946,2.9547,2.9546,2.9591,2.9608,2.9621,2.9632,2.9681,2.9701,2.9481,2.9481,2.9481,0,0,2.9415,2.9405,2.9429,2.9449,2.9448,2.9484,2.9403,2.9444,2.9471,2.9398,2.9456,2.9448,2.9452,2.9528,2.956,2.9526,2.9693,2.9633,2.9644,2.9647,2.9692,2.9713,2.9732,2.9487,2.9486,2.9485,0,0,2.9551,2.9545,2.9603,2.9604,2.9604,2.9582,2.9596,2.9585,2.9577,2.9634,2.9581,2.9613,2.9662,2.9668,2.9677,2.9815,2.9774,2.9825,2.9911,2.9959,2.9977,2.9992,3.0044,3.0063,2.9835,2.9836,2.9836,0,2.9631,2.9681,2.9638,2.9683,2.9694,2.9628,2.9688,2.9691,2.97,2.971,2.9671,2.9733,2.973,2.9808,2.9842,2.985,2.9867,2.9826,2.9977,2.9992,3.0006,3.0055,3.0074,2.9842,2.9841,2.984,2.984,0,2.9781,2.9817,2.9864,2.9873,2.989,2.9942,2.9908,2.993,2.99,2.9883,2.9944,2.9938,2.9962,2.9977,2.9948,3.0052,3.003,2.9985,2.9916,3.0034,3.0079,3.0097,2.9851,2.9849,2.9847,2.9845,0,0,2.998,2.9965,2.9983,2.9987,2.9982,3.0011,3.0061,3.0082,3.0104,3.0112,3.0155,3.0198,3.0157,3.0167,3.0138,3.018,3.0293,3.0129,3.0129,3.0162,3.0409,3.0446,3.0468,3.0265,3.0268,3.0271,3.041,0,3.0113,3.0197,3.0159,3.0247,3.0282,3.022,3.0264,3.0267,3.0253,3.0282,3.0266,3.0299,3.024,3.0246,3.0285,3.0271,3.0343,3.026,3.0306,3.0309,3.031,3.0491,3.0529,3.0661,3.0427,3.043,3.0432,0,3.028,3.0295,3.0386,3.0377,3.039,3.043,3.0448,3.0475,3.0478,3.0465,3.0478,3.044,3.049,3.042,3.049,3.0435,3.0451,3.0448,3.0452,3.0457,3.0379,3.0504,3.0702,3.0723,3.0459,3.0457,3.0455,0,3.042,3.0462,3.0523,3.0528,3.0518,3.0548,3.0546,3.0544,3.0561,3.0577,3.0587,3.061,3.0623,3.0642,3.0611,3.0562,3.0687,3.0613,3.068,3.0681,3.0711,3.071,3.0917,3.0718,3.0717,3.0717,3.0717,0,3.0574,3.0633,3.0586,3.0624,3.0689,3.0646,3.0712,3.0703,3.0703,3.0739,3.0686,3.0722,3.0678,3.0711,3.0687,3.075,3.0756,3.0749,3.0742,3.0755,3.0756,3.0767,3.0758,3.0722,3.0721,3.072,3.0719,0,3.0742,3.0712,3.0775,3.076,3.0758,3.0807,3.0795,3.083,3.0812,3.0859,3.0868,3.084,3.0875,3.0846,3.088,3.0865,3.095,3.0929,3.0949,3.0944,3.1013,3.1008,3.1237,3.1266,3.1045,3.1047,3.1049,0,3.0844,3.0888,3.0877,3.0897,3.0898,3.0931,3.0947,3.0906,3.0926,3.0933,3.0968,3.0998,3.1021,3.108,3.1065,3.1091,3.1072,3.115,3.1076,3.1088,3.1077,3.1076,3.1081,3.1166,3.1169,3.1171,3.1173,0,3.1029,3.1012,3.1036,3.1057,3.1077,3.1091,3.1101,3.1121,3.108,3.1105,3.1139,3.1157,3.1191,3.1223,3.1244,3.1243,3.1203,3.1196,3.1213,3.1228,3.1239,3.1237,3.0993,3.1192,3.119,3.1188,3.1187,3.1186,3.1168,3.1205,3.1204,3.1234,3.1237,3.1248,3.1281,3.1267,3.1295,3.1319,3.1294,3.1337,3.134,3.1364,3.1368,3.1402,3.137,3.1394,3.1401,3.1409,3.142,3.1231,3.1406,3.1405,3.1404,3.1404,3.1404,0,3.1353,3.1349,3.1376,3.1392,3.1416,3.1373,3.1382,3.1406,3.1444,3.145,3.1473,3.1514,3.1544,3.1531,3.1558,3.1589,3.1571,3.1597,3.1596,3.1597,3.1446,3.1429,3.1611,3.1611,3.1611,3.1611,3.1611,3.1611,3.1452,3.1513,3.1496,3.1559,3.1555,3.1596,3.1605,3.1616,3.162,3.1668,3.1693,3.1683,3.1682,3.1709,3.1736,3.1731,3.1745,3.178,3.1769,3.1628,3.1608,3.1588,3.1573,3.1782,3.1782,3.1918,3.1919,3.192]},{"header":{"parameterUnit":"m.s-1","parameterCategory":1,"la1":30.2991,"la2":30.254,"lo1":-89.0895,"lo2":-89.0444,"dy":0.0017,"dx":0.0017,"nx":28,"ny":28,"refTime":"2023-06-27T21:00:00:Z","depth":0,"parameterNumber":3,"parameterNumberName":"V-component_of_WINDS"},"data":[0,0,0,0,0,0,0,0,0,0,0,0,0,0,0,0,0,0,0,0,0,0,0,0,0,0,0,0,0,0,0,0,0,0,0,0,0,0,0,0,0,0,0,0,0,0,0,0,0,0,0,0,0,0,0,0,0,0,-0.3752,-0.3752,0,-0.3725,-0.3725,-0.3725,-0.372,-0.372,-0.372,-0.3721,-0.3692,-0.3691,-0.369,0,0,0,0,0,0,0,0,0,0,0,0,0,-0.3799,-0.3799,-0.3752,-0.3752,-0.3752,-0.3725,-0.3725,-0.3725,-0.372,-0.372,-0.3721,-0.3721,-0.3692,-0.3691,-0.369,0,0,0,0,0,0,0,0,0,0,0,0,0,-0.3776,-0.3798,-0.3752,-0.3746,-0.3745,-0.3726,-0.3725,-0.3725,-0.372,-0.372,-0.3721,-0.3721,-0.3693,-0.3691,-0.369,-0.3674,0,0,-0.3685,-0.3685,0,0,0,0,0,0,0,0,-0.3778,-0.3775,-0.3747,-0.3747,-0.3746,-0.3726,-0.3731,-0.3708,-0.372,-0.373,-0.3721,-0.3721,-0.3703,-0.3701,-0.3695,-0.3672,-0.3671,-0.3685,-0.3684,-0.3684,-0.3683,0,0,0,0,0,0,0,-0.3779,-0.3776,-0.3742,-0.3747,-0.3746,-0.3745,-0.3742,-0.3727,-0.3715,-0.3729,-0.3728,-0.3725,-0.3703,-0.3696,-0.3694,-0.3671,-0.3685,-0.3684,-0.3683,-0.3682,-0.3636,-0.3636,0,0,0,0,0,0,-0.3782,-0.3777,-0.3742,-0.3741,-0.3763,-0.3744,-0.374,-0.3732,-0.3715,-0.3712,-0.3725,-0.3725,-0.3699,-0.3696,-0.3693,-0.3674,-0.3684,-0.3682,-0.3681,-0.3636,-0.3636,-0.3635,0,0,0,0,0,0,-0.3783,-0.3779,-0.3744,-0.3759,-0.3754,-0.3742,-0.3733,-0.3732,-0.3725,-0.3712,-0.371,-0.3721,-0.3699,-0.3695,-0.3679,-0.3673,-0.3681,-0.368,-0.3637,-0.3636,-0.3636,-0.3636,0,0,0,0,0,0,-0.3785,-0.3779,-0.3773,-0.3759,-0.3754,-0.373,-0.3733,-0.3731,-0.3723,-0.3723,-0.3707,-0.3705,-0.3699,-0.3681,-0.3678,-0.3671,-0.3679,-0.3637,-0.3636,-0.3636,-0.3637,-0.3636,-0.3635,0,0,0,0,0,-0.3786,-0.3774,-0.3773,-0.3769,-0.3745,-0.373,-0.3726,-0.372,-0.3722,-0.3716,-0.3708,-0.3706,-0.3675,-0.368,-0.3676,-0.3669,-0.3637,-0.3637,-0.3636,-0.3637,-0.3636,-0.3635,0,0,0,0,0,0,-0.3786,-0.3771,-0.377,-0.3753,-0.3743,-0.3729,-0.372,-0.3718,-0.3707,-0.3707,-0.3699,-0.3696,-0.368,-0.3673,-0.3679,-0.3653,-0.3656,-0.3655,-0.3659,-0.3657,-0.3657,-0.3659,-0.3678,0,0,0,0,0,-0.3785,-0.3773,-0.3761,-0.3746,-0.3742,-0.3732,-0.3725,-0.3721,-0.371,-0.3705,-0.3696,-0.3685,-0.3673,-0.3665,-0.3653,-0.3636,-0.3633,-0.3629,-0.3628,-0.3628,-0.3626,-0.3618,-0.3617,-0.3633,-0.3633,-0.3633,0,0,-0.378,-0.3771,-0.3764,-0.3746,-0.3738,-0.3727,-0.3728,-0.3716,-0.3707,-0.3703,-0.3687,-0.3681,-0.3668,-0.3652,-0.3644,-0.3645,-0.3622,-0.3627,-0.3627,-0.3625,-0.3617,-0.3616,-0.3615,-0.3632,-0.3632,-0.3632,0,0,-0.3767,-0.3758,-0.3746,-0.3738,-0.3726,-0.372,-0.3717,-0.3704,-0.37,-0.3684,-0.3681,-0.3671,-0.365,-0.3642,-0.3635,-0.3621,-0.3619,-0.3617,-0.3613,-0.3605,-0.3604,-0.3602,-0.3598,-0.3596,-0.3616,-0.3616,-0.3616,0,-0.3762,-0.3745,-0.374,-0.3728,-0.3721,-0.3718,-0.3706,-0.3698,-0.3682,-0.3678,-0.3679,-0.3654,-0.3645,-0.3628,-0.3625,-0.3619,-0.3616,-0.3618,-0.3604,-0.3603,-0.3602,-0.3598,-0.3596,-0.3616,-0.3616,-0.3616,-0.3616,0,-0.3742,-0.373,-0.3722,-0.3708,-0.37,-0.3688,-0.3681,-0.3673,-0.367,-0.3665,-0.365,-0.364,-0.3626,-0.3622,-0.3618,-0.3604,-0.3606,-0.3606,-0.3609,-0.36,-0.3596,-0.3595,-0.3616,-0.3616,-0.3616,-0.3616,0,0,-0.3725,-0.371,-0.3707,-0.3702,-0.3689,-0.368,-0.3669,-0.3657,-0.3651,-0.3641,-0.3631,-0.3615,-0.3616,-0.3608,-0.3604,-0.3597,-0.3587,-0.3598,-0.3598,-0.3597,-0.3573,-0.3572,-0.3571,-0.3586,-0.3586,-0.3586,-0.3574,0,-0.3711,-0.369,-0.3686,-0.3669,-0.3658,-0.3657,-0.3647,-0.3638,-0.3633,-0.3624,-0.3618,-0.3607,-0.3608,-0.3604,-0.3597,-0.359,-0.3582,-0.3591,-0.3578,-0.3577,-0.3581,-0.3568,-0.3568,-0.3557,-0.3572,-0.3572,-0.3572,0,-0.369,-0.3681,-0.3663,-0.3653,-0.3649,-0.364,-0.363,-0.3621,-0.3611,-0.3608,-0.3601,-0.3598,-0.3586,-0.359,-0.3575,-0.3581,-0.3575,-0.3572,-0.3571,-0.3569,-0.3574,-0.3566,-0.3553,-0.3551,-0.3569,-0.3569,-0.3569,0,-0.3681,-0.3664,-0.3651,-0.3647,-0.3635,-0.3629,-0.3624,-0.3615,-0.3609,-0.36,-0.3596,-0.3585,-0.3579,-0.3571,-0.3566,-0.3569,-0.3551,-0.3555,-0.3549,-0.3549,-0.3544,-0.3545,-0.353,-0.3541,-0.3541,-0.3541,-0.3541,0,-0.3665,-0.3654,-0.3647,-0.364,-0.3628,-0.3623,-0.3612,-0.3607,-0.3599,-0.3591,-0.3588,-0.358,-0.3574,-0.3565,-0.3561,-0.355,-0.3547,-0.3544,-0.3543,-0.3544,-0.3545,-0.354,-0.3541,-0.3541,-0.3541,-0.3541,-0.3541,0,-0.3652,-0.3647,-0.3634,-0.3625,-0.3622,-0.3614,-0.3606,-0.3599,-0.3594,-0.3584,-0.3581,-0.3574,-0.3564,-0.3558,-0.3545,-0.3542,-0.353,-0.3529,-0.3533,-0.3532,-0.3527,-0.3528,-0.3509,-0.3506,-0.3519,-0.3519,-0.3519,0,-0.3642,-0.3634,-0.3625,-0.3619,-0.3614,-0.3605,-0.3599,-0.3595,-0.3589,-0.3579,-0.3573,-0.3563,-0.3555,-0.3539,-0.3533,-0.3523,-0.3522,-0.3516,-0.352,-0.3523,-0.3522,-0.3523,-0.3523,-0.3515,-0.3515,-0.3515,-0.3515,0,-0.3625,-0.3623,-0.3615,-0.3606,-0.36,-0.3592,-0.3585,-0.3581,-0.3575,-0.3569,-0.3559,-0.3553,-0.3541,-0.3531,-0.3521,-0.3516,-0.3515,-0.3514,-0.3512,-0.3513,-0.3516,-0.3515,-0.3531,-0.3514,-0.3514,-0.3514,-0.3514,-0.3514,-0.3613,-0.3606,-0.3599,-0.3591,-0.3585,-0.3579,-0.3572,-0.3568,-0.356,-0.355,-0.3548,-0.3538,-0.353,-0.3518,-0.3512,-0.3505,-0.3506,-0.3503,-0.3502,-0.3501,-0.3502,-0.3518,-0.3503,-0.3503,-0.3503,-0.3503,-0.3503,0,-0.3596,-0.3592,-0.3584,-0.3575,-0.3569,-0.3569,-0.3562,-0.3556,-0.3547,-0.3541,-0.3534,-0.3523,-0.3514,-0.3508,-0.3499,-0.3494,-0.3494,-0.3492,-0.3492,-0.3491,-0.3501,-0.3504,-0.3493,-0.3493,-0.3493,-0.3493,-0.3493,-0.3493,-0.3587,-0.3576,-0.3574,-0.3561,-0.3557,-0.3547,-0.3543,-0.3538,-0.3533,-0.3521,-0.3514,-0.3511,-0.3505,-0.3496,-0.3488,-0.3487,-0.3483,-0.3482,-0.3481,-0.3489,-0.349,-0.3491,-0.3494,-0.3481,-0.3481,-0.3472,-0.3472,-0.3471]}]]